Location: Edmonton
(53.5500°N, 113.5000°W)
Time: 10:54:32
(UTC-07:00)

N. Korean satellite - Pass Details

Date: 25 October 2019
Orbit: 456 x 506 km, 97.2° (Epoch: 20 November)

Event Time Altitude Azimuth Distance (km) Brightness Sun altitude
Rises 19:53:00 0° 218° (SW) 2,480 10.7 -15.0°
Reaches altitude 10° 19:56:24 10° 255° (WSW) 1,622 10.5 -15.5°
Maximum altitude 19:57:29 11° 274° (W) 1,558 10.5 -15.7°
Drops below altitude 10° 19:58:34 10° 292° (WNW) 1,634 10.3 -15.9°
Sets 20:02:03 0° 329° (NNW) 2,533 10.7 -16.4°
